Wind_Gust
15 15 12 9 8 7 8 16 11 15 12 9 7 7 12 8 8 12 16 19 17 9 7 8 11 16 12 7 10 11 7 10 8 14 12 9 8 13 12 18 25 23 22 23 22 24 23 19 20 22 21 22 22 21 20 20 19 18 17 17 16 17 17 18 17 17 17 16 16 16 16 16 16 16 15 15 15 15 15 15 15 15 16 16 15 15 16 17 16 16 15 15 15 16 16 17 16
15 15 10 10 10 7 9 6 15 9 12 10 9 7 11 7 6 10 13 13 11 19 10 6 8 12 11 13 15 14 10 9 7 6 8 8 11 12 14 21 23 24 23 22 22 22 22 24 20 21 21 22 21 22 20 20 20 19 19 18 17 17 17 17 17 17 16 16 16 16 16 16 16 16 16 15 14 14 13 13 15 15 15 14 15 15 15 16 16 16 16 15 16 17 16 16 15
16 14 11 8 6 12 6 12 14 7 9 9 10 9 7 7 9 6 8 10 13 10 9 7 6 6 9 13 9 9 7 8 8 6 9 11 15 10 17 21 22 22 23 22 23 23 21 22 18 20 22 22 22 21 21 20 20 20 18 17 17 16 16 17 17 16 16 16 16 16 16 16 16 15 15 15 13 12 11 12 16 16 16 15 15 16 15 17 18 17 16 16 16 17 17 16 15
11 4 10 9 14 11 8 13 10 8 10 8 12 9 8 7 7 6 8 11 14 7 7 7 7 6 8 15 7 10 9 8 7 12 15 19 10 17 19 20 21 24 21 22 22 23 22 22 18 20 21 21 22 21 21 20 20 19 18 18 17 16 16 16 16 16 16 16 16 15 15 16 15 15 15 15 13 14 14 15 16 16 16 15 15 15 15 14 15 17 17 17 17 16 16 15 14
10 7 6 8 8 7 8 5 10 9 10 11 12 9 9 8 6 8 7 10 13 8 9 9 8 8 9 10 7 10 10 8 8 10 15 11 15 19 21 21 22 22 22 21 22 22 22 22 19 19 20 22 21 21 21 21 20 19 18 18 18 16 16 16 16 16 16 16 15 15 15 15 15 15 15 15 15 14 14 14 14 14 14 14 14 13 13 13 14 16 16 16 16 16 15 13 12
7 7 6 4 6 7 16 8 8 11 12 11 10 11 12 10 8 9 7 9 11 8 6 5 9 7 7 10 11 8 8 6 9 10 15 15 20 21 21 21 21 21 22 22 21 20 23 21 19 18 19 21 21 21 20 20 20 19 18 18 17 17 16 16 16 16 16 16 15 15 14 14 14 14 14 14 13 14 15 15 15 13 13 14 14 14 15 14 13 14 15 15 16 14 13 12 11
9 9 14 9 9 12 11 8 11 9 15 13 10 10 8 10 12 10 5 9 6 7 8 6 6 6 10 9 10 11 10 10 10 10 13 18 21 21 20 21 21 22 22 22 21 21 23 18 18 18 19 19 20 20 20 19 19 19 18 17 17 17 17 16 15 16 16 15 14 14 14 14 14 14 13 14 13 15 15 14 14 13 13 12 13 13 14 15 14 15 14 14 14 13 12 11 10
5 8 8 6 7 8 6 6 12 11 10 12 7 9 11 13 16 8 8 7 11 11 6 6 7 10 8 7 8 11 14 10 9 15 19 21 21 22 21 21 23 21 22 21 20 19 20 17 18 18 20 18 19 19 19 19 18 18 18 17 17 17 17 16 15 15 14 15 14 14 14 14 14 13 12 12 13 14 14 14 13 12 12 12 12 13 13 14 14 14 14 14 13 12 11 11 10
9 12 7 8 10 9 7 10 12 6 15 10 15 12 10 13 15 12 9 6 7 7 9 8 8 10 9 10 8 10 11 10 14 19 22 22 22 22 23 21 23 24 22 22 21 20 22 16 17 18 19 18 19 19 19 19 19 18 18 18 17 15 15 15 15 15 14 13 13 13 13 13 14 13 13 13 13 13 14 13 13 12 11 11 11 12 13 13 14 14 13 13 12 12 11 10 9
7 7 9 11 10 14 8 9 10 13 13 9 11 14 14 14 10 9 15 10 10 6 9 8 7 10 10 9 6 7 9 10 17 19 20 21 20 20 19 20 20 23 22 22 21 21 20 19 17 15 16 17 17 17 18 16 17 16 17 17 16 15 15 15 13 14 13 14 13 13 13 13 13 13 13 13 12 12 13 13 12 11 11 11 11 11 11 12 13 13 13 13 12 11 10 9 9
15 11 7 14 11 16 17 11 12 9 10 9 12 14 16 14 10 11 15 11 9 10 8 10 10 10 8 7 6 8 8 11 16 20 19 19 19 20 20 18 19 20 22 21 20 21 23 22 20 15 14 16 13 14 14 14 16 16 16 15 15 17 16 15 14 14 14 14 14 14 13 13 13 13 13 12 12 12 12 12 11 11 10 10 10 10 10 10 11 11 11 11 11 10 9 7 7
12 13 11 17 18 20 15 19 14 14 10 8 12 9 8 8 7 13 10 10 10 10 9 16 12 15 9 8 7 10 11 11 14 17 18 19 21 20 20 20 19 20 21 22 21 21 22 23 22 19 16 16 14 15 14 16 17 16 17 17 15 15 15 13 14 14 13 14 13 12 12 12 13 13 11 11 11 12 12 12 11 10 10 10 10 9 9 9 9 10 10 10 10 10 9 7 7
14 9 12 17 17 16 10 15 15 12 10 12 13 12 7 5 9 10 5 6 5 10 12 11 11 11 8 7 9 10 13 12 14 17 19 20 20 20 18 20 21 20 20 20 21 22 21 22 23 22 19 19 17 17 16 17 17 16 16 16 16 15 16 15 14 14 13 13 12 12 12 12 13 12 11 11 11 11 11 12 11 11 10 9 9 9 9 8 8 8 9 9 9 9 9 9 9
17 19 18 26 10 14 18 12 8 17 16 9 9 9 8 8 7 8 13 7 5 6 8 6 13 11 10 11 11 13 16 14 16 17 19 19 19 20 18 19 19 19 19 19 21 22 20 21 22 20 21 20 19 18 17 18 18 17 15 15 15 14 14 14 14 13 13 13 13 13 12 12 12 11 11 10 10 10 10 11 11 11 10 10 9 9 9 8 8 8 9 9 10 10 11 11 11
14 10 17 13 13 14 14 25 19 17 21 12 10 8 9 8 7 8 6 8 7 7 6 6 9 10 12 17 13 22 20 19 20 18 18 19 19 19 18 19 19 18 19 20 20 21 21 21 21 19 18 19 19 18 17 20 19 17 16 16 15 14 14 14 13 12 12 12 13 12 12 11 11 11 10 9 9 9 9 9 10 10 10 9 9 9 8 8 7 7 8 9 10 10 11 11 11
11 14 15 22 21 21 18 19 14 19 19 11 10 5 5 11 7 7 6 6 11 7 8 9 6 9 8 19 11 23 24 23 21 21 22 20 19 18 19 18 19 19 19 19 19 19 21 22 20 20 20 19 18 17 18 18 17 18 16 16 15 15 15 14 13 12 12 12 12 12 11 13 11 13 9 11 8 8 8 9 9 9 9 9 10 9 9 8 7 8 7 7 7 8 9 9 9
7 10 18 22 25 21 18 22 19 27 10 14 8 5 12 13 6 8 5 7 14 8 8 10 10 9 8 10 22 26 26 23 21 22 22 22 22 21 19 20 20 19 19 20 19 21 20 21 21 21 20 19 19 19 17 18 19 18 16 16 16 15 13 13 12 12 11 10 11 11 10 12 12 12 11 11 7 11 7 8 9 9 8 9 10 9 9 8 8 8 8 7 7 6 6 7 8
11 23 26 25 18 24 21 22 24 14 21 13 11 12 11 11 7 10 10 15 14 11 11 8 15 15 13 18 26 27 26 27 25 26 25 24 23 23 22 21 23 23 23 22 20 21 22 20 21 20 21 20 20 20 18 17 18 17 16 17 16 15 12 11 12 12 11 11 10 11 11 11 10 12 11 8 10 10 11 8 8 8 8 9 8 9 8 7 7 7 8 8 7 6 7 7 7
23 16 20 34 20 19 20 21 19 18 16 13 16 14 15 15 10 13 11 10 13 12 9 10 16 16 19 22 26 28 27 26 27 26 27 25 25 24 24 23 22 22 22 20 21 20 20 20 19 20 19 20 19 17 17 16 16 16 15 15 16 11 13 12 11 11 10 10 10 10 9 9 9 9 9 8 10 7 11 8 8 9 8 9 9 8 8 8 8 8 7 7 8 7 8 8 8
16 18 28 28 11 13 17 17 18 17 14 16 12 10 15 8 11 11 11 13 11 13 15 10 15 19 20 23 25 28 28 28 27 27 27 24 22 24 22 23 23 24 22 24 24 23 21 20 20 18 18 20 19 18 16 16 16 15 15 15 15 14 13 11 10 10 10 9 9 8 8 8 8 8 6 8 9 9 9 7 9 8 8 8 11 7 8 8 9 8 8 8 6 6 9 8 9
16 19 29 17 13 15 15 13 17 17 14 16 13 8 14 10 10 14 11 13 12 12 14 15 21 23 23 24 27 27 28 28 27 26 24 21 21 20 23 25 27 26 24 22 18 22 20 19 19 18 18 18 17 17 15 16 16 15 14 13 13 13 12 12 10 9 8 8 8 7 7 6 6 7 7 7 8 9 8 8 9 9 9 9 8 9 8 9 8 11 11 9 11 10 11 11 10
19 24 10 10 11 18 9 15 10 14 8 11 11 15 15 10 9 12 17 18 14 16 17 18 23 26 29 30 28 28 28 28 29 27 22 23 24 23 18 19 16 18 19 25 23 21 19 19 18 18 17 16 15 15 14 16 16 14 13 12 12 12 12 11 10 9 8 7 7 6 5 5 6 6 6 7 8 7 9 10 10 9 8 9 8 9 9 9 9 10 10 11 10 10 10 10 10
27 15 12 10 13 16 6 12 11 10 12 11 11 10 11 12 10 7 10 13 8 7 9 20 23 27 28 28 30 29 29 30 30 25 24 23 22 20 22 21 22 22 22 20 20 19 20 18 17 17 16 17 16 14 15 15 13 12 11 12 13 12 11 11 11 9 8 6 6 6 6 6 6 7 8 8 8 8 9 9 10 9 8 8 8 9 9 9 9 10 11 10 10 10 11 11 11
19 28 11 15 11 15 7 11 8 11 8 13 9 5 10 12 15 9 10 8 10 13 13 21 20 23 27 31 30 32 33 32 28 22 22 24 25 22 21 21 19 18 20 19 20 19 20 18 17 16 17 17 15 13 14 15 12 11 11 12 12 11 11 11 10 9 6 7 7 8 8 7 7 8 8 8 8 8 9 9 8 9 8 8 8 8 8 9 10 10 10 11 11 11 12 11 11
24 25 12 8 10 13 10 8 6 9 9 7 5 9 8 11 9 13 9 10 9 12 18 22 22 24 26 27 30 28 27 25 25 19 16 14 11 14 16 16 19 20 20 20 20 20 19 18 16 18 17 16 15 14 14 14 13 10 10 11 11 10 10 9 9 9 7 7 7 7 7 7 7 8 8 9 8 9 8 8 8 9 9 9 8 10 10 9 10 10 10 10 10 10 10 11 11
26 16 11 8 11 12 12 9 9 9 8 8 10 9 6 8 13 9 8 8 9 13 19 21 24 25 28 28 28 29 28 27 23 21 22 13 12 16 17 19 20 21 21 20 21 19 19 17 17 18 17 18 16 14 14 13 13 12 11 11 11 11 9 9 8 8 7 9 9 8 8 8 7 7 9 8 8 9 8 8 9 9 9 9 9 10 10 10 9 9 10 10 12 11 11 11 9
10 14 13 13 9 8 9 17 14 10 9 8 14 8 10 8 13 17 9 11 13 16 19 21 25 26 26 25 25 24 24 25 25 17 16 15 16 19 20 19 20 20 19 20 21 20 18 18 17 17 16 15 15 15 13 13 12 12 11 10 11 10 10 9 9 9 9 9 9 10 9 8 8 7 8 9 9 10 9 9 10 9 9 9 9 10 10 10 10 11 11 10 11 11 12 11 11
6 13 15 15 12 12 8 6 8 9 14 12 9 6 5 6 11 13 15 16 17 20 20 23 23 23 25 23 22 20 21 21 22 21 23 22 23 22 21 23 21 20 20 20 20 20 19 19 19 17 16 17 16 15 14 13 14 12 11 9 10 10 9 9 10 10 10 9 9 9 9 8 8 9 10 10 9 11 10 11 10 10 10 9 10 9 11 9 10 12 11 11 10 10 11 11 11
7 10 14 13 13 27 20 22 9 12 18 13 15 10 15 14 12 12 18 19 20 21 22 23 22 22 22 22 22 23 23 22 22 23 23 22 18 19 21 19 21 21 18 18 20 20 20 20 20 19 18 17 17 15 15 14 13 13 12 10 9 10 10 10 10 10 9 9 9 9 9 10 9 11 12 11 11 12 12 11 11 11 10 10 10 9 10 9 9 10 11 10 10 10 11 11 12
7 8 10 10 12 22 24 16 12 14 11 14 20 29 29 21 13 16 21 23 21 21 21 23 22 22 22 22 23 22 21 22 23 23 21 21 18 18 19 19 19 20 20 19 19 20 20 19 19 19 20 19 17 16 14 14 12 11 11 10 10 10 11 11 10 10 10 9 10 9 9 10 11 12 13 13 13 12 12 12 12 11 10 9 9 9 11 10 11 12 11 10 11 11 11 11 12
23 10 12 23 17 24 20 28 22 19 12 15 21 35 17 14 12 18 21 23 27 26 24 24 23 22 22 22 22 21 20 22 21 20 18 17 16 17 18 18 19 19 18 19 20 20 20 20 20 20 16 16 16 15 16 14 12 12 12 11 11 11 12 11 11 10 10 10 10 11 11 12 13 14 13 14 12 12 12 12 11 10 9 8 10 10 10 10 11 12 12 10 10 11 12 13 13
18 21 27 26 29 11 12 19 26 34 13 14 18 30 19 13 15 20 22 24 24 27 25 25 24 24 23 21 21 21 21 19 17 17 16 16 17 18 19 20 19 18 18 18 19 21 21 19 18 15 15 15 15 14 13 14 14 13 13 11 12 11 12 11 11 10 10 10 11 13 13 14 14 14 13 13 13 11 11 11 11 9 9 9 10 9 9 11 11 12 12 11 10 11 10 12 11
21 31 18 27 27 18 12 13 22 25 25 12 28 19 11 11 15 20 21 25 24 25 24 23 22 22 22 22 21 17 18 16 15 18 16 16 18 18 19 19 21 20 18 19 20 20 20 18 17 16 17 16 15 15 15 14 15 14 13 13 13 13 13 12 11 11 11 12 12 15 14 15 14 13 12 12 13 12 12 12 10 10 8 9 9 9 11 10 10 11 11 11 9 9 10 12 12
29 30 30 15 26 21 24 13 8 21 28 25 24 23 10 7 21 23 23 25 25 24 26 25 26 24 23 19 17 17 20 18 20 20 17 16 18 19 18 18 20 18 18 18 20 22 22 20 18 16 17 15 15 16 16 15 15 15 14 13 13 14 13 13 13 13 13 13 14 15 13 13 13 13 12 12 13 12 12 12 10 9 8 9 9 10 11 10 10 9 11 11 12 11 11 11 13
32 27 24 12 11 19 20 23 16 22 28 27 21 26 12 7 18 23 24 25 26 27 28 28 27 25 22 17 16 18 19 20 20 16 15 15 17 18 19 18 18 18 17 17 18 20 19 18 18 18 18 18 17 17 16 16 16 15 15 15 15 15 14 13 13 15 14 13 13 13 13 13 13 13 12 12 12 12 12 11 10 9 9 8 10 10 10 11 11 11 11 11 11 13 11 10 11
14 18 15 13 19 23 28 18 13 26 26 27 26 32 20 15 20 23 19 26 28 27 24 22 22 21 19 17 17 18 19 20 16 14 14 15 16 18 18 17 16 17 16 18 18 17 18 18 17 18 18 19 18 19 18 18 16 16 16 15 14 14 14 14 13 15 12 12 12 13 13 13 13 12 12 12 12 11 11 10 10 10 10 10 11 11 11 11 10 11 12 10 10 12 14 12 11
18 15 17 19 16 11 7 16 14 22 24 28 26 22 22 19 23 25 22 21 25 23 23 24 23 23 20 20 21 22 21 20 12 15 14 16 17 18 15 16 16 15 17 17 17 17 18 18 19 18 18 17 17 19 18 19 18 16 15 16 15 14 16 13 13 10 13 12 12 13 13 13 13 12 11 11 11 11 11 10 10 11 11 11 11 11 10 11 11 11 12 12 12 13 15 14 11
8 20 20 18 20 19 18 23 12 19 21 14 10 21 23 23 23 24 25 18 26 26 28 28 27 25 22 23 24 26 23 12 13 15 14 16 19 17 15 15 15 17 16 18 20 17 16 17 18 18 16 18 16 16 17 18 17 19 18 17 17 16 15 15 15 11 13 13 13 13 13 13 13 12 11 10 12 10 10 11 11 12 11 12 12 11 11 11 10 10 9 14 14 15 16 16 16
8 16 22 20 23 13 10 11 9 15 19 12 15 21 22 20 22 23 29 30 31 29 30 31 31 28 25 24 24 22 18 19 17 18 16 19 18 17 17 16 16 17 16 16 17 16 16 16 18 16 19 20 19 20 19 19 18 18 19 20 20 15 10 10 14 12 12 14 13 13 12 11 11 12 11 10 11 11 11 12 12 11 12 11 11 11 11 11 11 11 10 10 12 13 15 17 18
7 10 21 27 19 25 23 13 7 9 17 13 15 21 12 13 18 24 27 30 29 27 27 27 24 27 26 27 26 23 20 20 19 20 19 19 19 18 17 17 17 17 18 20 21 20 20 18 17 18 16 15 18 21 19 17 19 16 18 17 13 14 17 14 15 13 13 13 14 13 12 11 12 12 11 11 12 12 12 13 12 12 12 11 11 12 12 13 11 10 10 9 8 14 16 19 18
12 9 9 15 17 23 15 18 10 10 10 12 18 15 10 16 21 24 22 21 23 27 25 25 26 24 19 14 15 21 21 20 19 19 19 20 21 21 20 18 18 18 21 23 22 20 20 19 19 20 18 17 21 21 21 21 22 18 17 15 16 17 12 13 15 13 11 13 13 12 12 11 12 13 12 12 13 13 13 13 13 13 13 12 12 13 14 13 12 11 10 9 9 13 15 15 19
15 13 12 9 16 17 10 17 20 19 13 16 24 18 23 17 22 24 21 19 24 22 23 25 28 27 18 19 20 17 18 17 20 21 21 20 19 17 17 18 18 18 19 19 18 17 17 18 18 20 23 24 21 22 22 22 23 26 25 23 19 19 18 13 17 16 10 10 13 11 12 12 12 13 12 13 13 13 14 14 13 14 14 14 14 14 14 13 13 12 11 10 13 10 15 16 21
18 17 17 12 10 11 14 19 20 22 29 23 13 30 21 12 24 24 23 22 23 17 21 22 25 26 23 23 24 25 23 17 17 16 18 20 18 17 16 17 17 17 17 18 16 16 17 17 22 23 22 20 21 20 23 24 24 24 23 21 21 21 19 11 11 12 12 12 12 12 13 12 12 13 12 13 14 14 14 14 14 14 15 14 14 15 15 14 13 13 12 13 12 11 11 18 15
32 8 14 15 10 9 11 12 18 7 11 13 12 18 19 18 25 23 25 27 26 19 22 24 21 21 23 24 25 24 21 19 19 19 20 21 19 20 19 18 17 17 19 18 16 15 17 18 19 19 19 21 22 24 25 25 25 22 17 18 15 16 15 16 13 13 12 13 14 13 13 12 12 13 14 14 14 15 14 15 14 14 15 15 15 16 15 13 14 14 15 14 15 16 15 17 16
19 8 15 16 15 11 7 9 9 8 16 19 22 10 23 23 14 22 26 26 29 28 23 28 25 25 25 26 26 20 19 20 21 21 22 24 23 20 19 18 16 16 20 20 20 18 17 17 17 17 20 19 21 22 21 19 19 16 16 18 16 13 16 17 15 13 14 13 15 13 13 13 13 13 14 14 14 15 14 14 14 15 15 15 16 16 15 15 15 14 15 17 17 17 17 15 17
9 14 10 9 9 9 11 9 9 9 17 26 26 24 34 13 11 24 27 29 33 34 30 30 33 31 31 31 28 25 23 19 21 23 22 22 21 20 18 17 19 17 20 17 17 18 18 18 18 19 18 19 18 19 20 19 17 18 18 16 18 16 16 16 15 16 14 12 15 13 12 13 14 14 14 14 15 16 15 15 15 15 15 15 16 16 16 16 15 17 16 16 16 18 17 18 19
9 15 14 12 10 9 9 7 10 11 18 28 20 23 23 22 19 26 33 39 31 28 28 31 33 34 34 31 29 27 27 24 21 22 21 20 17 17 18 20 19 17 19 19 17 18 18 19 20 18 19 20 22 22 22 20 15 15 17 16 17 19 18 18 19 16 16 14 15 13 13 13 13 14 15 15 15 15 15 14 14 15 15 15 15 14 15 16 16 16 17 17 18 18 18 18 20
20 31 25 16 9 9 9 8 8 18 28 13 16 23 16 30 21 23 25 16 32 30 30 36 36 36 37 31 30 28 26 21 20 22 23 24 23 21 19 21 21 19 18 21 19 18 19 19 19 20 19 18 19 22 20 19 19 15 14 17 17 17 19 19 19 19 17 16 15 15 14 15 14 14 15 15 14 14 14 15 15 15 15 14 15 14 15 15 16 16 16 16 17 17 17 19 18
22 22 25 25 21 18 16 15 18 28 29 8 11 21 15 36 17 17 26 21 24 31 33 36 36 35 32 29 27 28 29 20 21 24 25 25 26 25 22 22 21 19 20 21 22 21 20 19 20 21 20 18 19 22 21 19 16 16 17 15 15 16 17 18 18 18 16 16 16 16 16 16 15 16 15 16 14 14 15 15 14 15 15 15 15 16 15 15 16 16 17 17 18 18 18 18 20
23 32 34 32 30 25 20 27 18 12 9 7 15 24 29 12 15 16 24 29 29 33 34 31 32 32 30 28 26 25 25 26 23 23 25 24 26 22 20 23 22 20 21 22 20 19 18 20 21 21 21 18 17 20 20 16 14 16 15 17 17 18 17 15 14 16 15 14 14 15 15 16 16 16 16 15 14 14 14 14 15 16 16 16 16 16 16 16 16 19 17 18 18 18 18 19 20
25 8 25 27 29 33 29 29 28 19 15 9 9 24 24 21 14 20 28 30 30 29 31 27 22 19 18 19 21 23 23 27 26 25 25 25 25 21 19 24 22 23 22 20 20 19 20 22 23 21 21 19 19 20 20 19 16 15 15 15 16 16 16 15 13 13 14 14 13 14 14 15 17 16 16 15 14 15 15 16 16 16 16 16 15 16 17 17 17 18 18 17 18 17 18 19 19
14 11 11 13 24 12 13 11 13 14 17 13 19 23 11 16 9 9 8 12 21 21 19 17 18 18 20 21 24 28 30 30 26 24 25 24 24 21 21 22 22 24 23 20 21 22 20 22 22 21 23 20 19 21 20 18 19 16 17 17 17 17 16 15 14 12 12 13 15 15 15 15 15 16 15 16 15 16 16 17 16 16 16 16 16 16 17 18 17 18 19 18 19 16 19 19 19
27 18 30 20 12 13 12 6 9 7 11 19 11 14 11 14 9 10 8 12 15 18 20 20 20 22 24 26 26 27 30 29 27 28 26 25 25 24 24 21 22 23 24 23 22 21 21 22 21 20 18 17 17 18 16 17 20 18 16 16 16 16 16 17 17 15 15 14 15 15 16 16 16 15 16 15 16 15 16 17 17 17 16 16 16 16 17 17 17 18 18 18 19 17 18 19 18
21 27 19 12 9 11 12 14 8 12 19 19 12 17 9 14 25 8 9 16 17 20 24 25 23 23 26 27 27 30 32 30 27 23 24 26 28 28 25 23 24 25 23 23 23 22 23 22 20 21 22 21 18 18 20 18 20 17 17 17 14 15 17 15 15 17 16 17 15 16 16 17 15 15 16 15 17 17 16 16 17 17 16 16 16 16 17 18 17 18 18 18 18 17 18 18 18
24 21 11 31 19 18 10 11 12 17 20 15 12 8 12 18 17 10 12 16 18 21 21 22 24 25 29 27 27 27 29 26 28 27 27 28 29 29 28 22 24 24 22 23 24 24 23 20 19 20 23 20 20 19 17 16 19 17 17 18 17 16 15 16 14 16 16 18 17 17 17 17 17 16 17 17 18 18 17 17 17 17 17 17 16 17 17 17 17 19 18 18 16 17 19 19 17
9 12 21 10 9 14 16 21 10 15 9 9 13 10 20 19 16 16 19 22 23 22 22 25 29 31 31 29 28 34 35 32 28 24 24 27 30 30 28 26 23 23 21 21 22 22 23 23 18 16 17 17 19 20 18 19 18 16 15 15 16 17 16 16 16 18 18 18 18 18 18 17 17 16 16 17 18 18 18 17 17 18 18 17 17 17 17 17 17 17 17 17 17 17 19 19 18
19 28 24 17 20 10 11 10 11 10 14 14 14 17 16 16 18 16 21 22 24 28 28 28 30 30 30 28 29 32 34 33 28 25 24 25 29 28 27 26 25 22 19 19 21 22 22 21 21 19 23 20 19 18 18 17 17 15 19 18 18 16 16 16 16 16 18 18 17 17 17 17 17 16 17 17 18 18 18 18 19 18 19 18 18 17 16 17 17 17 17 17 17 18 19 19 18
20 23 21 19 21 19 26 27 13 11 9 9 13 23 16 21 13 23 25 22 23 24 30 30 28 30 27 25 24 27 32 30 25 24 24 25 29 29 27 27 25 23 23 22 23 21 20 21 23 21 21 26 23 18 17 17 15 17 17 19 18 15 16 17 17 17 18 19 18 17 17 18 17 16 17 18 19 17 17 18 18 19 18 19 18 18 17 17 19 18 17 16 17 18 19 18 16
Wind_Speed
10 8 5 4 3 2 2 1 3 1 1 2 1 1 4 2 3 6 9 11 8 3 2 3 5 8 2 1 2 5 1 3 1 3 4 1 2 6 5 9 14 13 13 12 12 14 14 14 15 15 14 15 15 15 15 15 15 14 14 14 13 12 12 12 12 12 12 13 13 13 13 12 12 12 11 11 12 12 12 11 12 11 12 11 11 11 13 13 12 12 11 11 11 12 12 12 12
7 7 3 5 4 2 1 1 4 1 2 3 3 1 4 1 1 5 7 8 5 7 4 1 2 5 6 8 8 8 4 3 1 1 3 2 4 4 6 11 14 15 13 12 12 12 13 15 15 15 15 15 15 15 15 15 15 15 15 14 13 13 12 12 12 12 12 12 12 13 13 12 12 12 12 11 11 10 9 11 12 12 11 11 11 11 11 12 12 12 12 11 11 11 11 11 11
8 7 1 2 1 1 1 2 3 1 3 3 2 1 0 1 4 1 3 5 7 5 3 2 1 1 4 7 4 3 2 1 2 1 1 4 7 4 8 12 12 14 14 11 12 13 11 14 14 15 16 16 15 15 15 15 15 15 15 14 13 13 12 12 12 12 12 12 12 13 13 12 12 12 11 10 10 9 9 10 12 13 12 11 11 11 11 13 12 13 12 12 12 11 11 11 10
6 1 4 3 4 2 2 3 2 1 1 1 1 2 2 2 2 1 3 6 5 2 2 2 2 2 3 8 1 5 4 2 2 4 3 7 2 9 10 13 14 12 11 10 12 12 12 15 15 15 16 15 15 15 15 15 15 15 15 14 14 13 12 12 12 12 12 12 12 12 12 12 12 12 11 10 11 11 11 12 13 12 11 11 11 10 10 10 12 13 13 13 12 12 12 11 10
5 2 1 1 1 2 1 1 3 1 1 3 1 4 4 2 1 3 3 6 5 3 4 3 2 3 4 4 2 2 3 1 2 4 3 4 7 10 12 13 12 12 12 12 12 12 12 18 15 15 15 15 15 15 15 15 14 14 14 14 14 13 13 12 12 12 12 12 12 12 12 11 12 11 11 11 11 11 12 11 11 11 10 10 10 10 9 10 11 12 12 12 12 12 11 10 8
2 1 1 0 1 1 2 2 3 4 1 3 3 3 6 3 1 3 3 5 6 3 2 1 3 2 1 4 3 1 2 0 3 4 7 6 11 13 13 13 11 11 12 11 11 10 13 16 15 14 14 14 15 15 15 15 14 14 14 14 14 13 13 12 12 12 12 12 12 12 12 11 12 11 11 10 10 11 12 12 12 10 10 10 10 11 10 10 10 11 11 11 12 11 10 9 8
3 1 4 3 3 1 2 3 5 4 1 5 3 4 3 5 2 3 1 4 2 3 3 1 1 1 3 3 4 4 3 3 4 4 6 10 12 13 13 11 11 12 13 11 11 11 15 14 14 13 13 14 15 15 15 15 15 14 14 13 13 13 13 13 12 12 12 12 12 12 11 11 11 11 11 10 10 11 12 11 11 10 10 9 9 10 10 10 10 11 11 11 11 10 9 9 8
1 2 1 1 0 2 2 1 5 2 1 7 2 2 6 7 5 2 2 1 4 4 1 2 2 4 1 1 1 4 5 2 1 8 10 12 13 14 13 11 12 12 13 12 11 11 15 12 13 14 14 13 14 14 15 15 14 14 14 13 13 13 13 12 12 12 11 12 12 11 11 11 11 10 9 10 10 11 11 11 10 9 9 9 10 10 10 10 10 10 11 10 10 10 9 8 8
2 3 1 1 4 3 2 4 4 1 7 4 7 7 5 8 9 5 3 2 2 3 4 3 3 3 3 3 1 4 4 4 4 10 13 13 13 14 10 11 12 12 13 12 11 11 13 12 12 12 13 13 13 14 14 15 14 14 13 13 13 11 12 12 12 12 11 11 11 11 11 11 11 10 10 10 10 10 10 10 10 9 9 8 9 9 10 10 10 10 10 10 10 9 8 8 7
2 1 2 1 2 6 3 2 3 4 5 3 6 9 6 4 4 3 1 1 4 1 4 4 2 4 4 2 1 0 3 3 8 10 11 13 12 12 12 12 12 14 13 12 11 11 11 15 11 10 11 11 12 12 13 12 12 12 12 13 12 11 12 12 11 11 11 11 11 11 11 11 11 10 10 10 9 8 9 9 9 8 8 8 8 8 9 9 9 9 9 9 9 8 7 6 6
4 3 2 4 4 6 7 4 5 3 5 4 6 8 9 2 5 5 6 4 3 4 3 4 4 3 3 2 1 2 1 6 9 11 12 12 12 12 11 11 11 12 12 13 12 11 12 13 14 10 10 10 10 10 10 10 10 11 11 11 11 13 13 12 12 12 11 11 12 11 11 10 10 10 10 9 8 8 8 8 8 8 7 7 7 7 8 8 8 8 8 8 8 8 7 6 4
3 4 2 7 7 8 6 8 7 6 5 3 5 4 2 3 3 3 7 4 6 5 4 10 1 8 4 2 2 2 5 6 8 10 12 12 11 12 11 10 11 11 13 13 13 12 13 13 12 13 11 9 9 10 9 11 12 12 11 12 10 12 12 11 12 11 11 11 11 10 10 10 10 10 9 9 8 8 8 8 8 7 7 7 7 7 7 7 7 7 8 8 8 8 7 5 4
4 2 5 5 5 6 3 8 7 6 4 5 7 4 1 2 4 2 2 2 2 4 3 5 6 6 2 1 1 4 7 7 8 11 12 11 11 10 10 10 11 12 12 13 13 13 13 13 12 12 13 14 12 11 10 11 12 10 10 11 11 12 12 11 11 11 11 10 10 10 10 10 10 10 9 8 8 7 8 8 8 7 7 7 6 6 6 6 6 6 6 7 7 6 6 5 4
4 5 7 10 4 6 7 4 2 8 6 2 4 5 3 2 2 3 6 2 1 1 3 2 7 5 4 3 2 5 8 9 10 11 10 11 10 10 11 10 11 11 12 12 12 13 12 12 12 11 12 12 11 11 12 13 12 11 9 10 10 10 10 10 10 10 10 10 10 10 10 10 10 9 8 8 7 7 7 8 8 8 7 7 6 6 6 5 5 5 5 5 5 5 4 4 4
5 1 5 2 4 6 6 9 9 8 8 6 4 4 4 0 3 4 2 4 2 2 2 2 2 4 2 8 5 10 10 12 12 11 11 10 11 10 11 10 11 11 11 11 11 12 12 12 12 10 11 11 11 9 9 11 13 11 11 11 10 9 10 10 9 9 9 9 10 9 9 9 9 8 8 7 6 6 6 6 7 8 7 6 6 6 6 6 5 5 4 3 3 3 3 3 2
1 4 1 7 8 10 6 9 8 10 6 6 2 1 3 2 3 2 0 2 5 2 2 3 1 2 2 10 2 12 15 14 13 12 12 12 11 10 10 11 10 11 10 11 11 10 12 13 11 10 10 11 10 9 10 11 12 12 11 11 11 10 10 9 8 8 8 8 9 9 9 8 7 7 6 6 6 5 5 5 7 7 7 6 5 5 5 4 5 4 4 2 2 2 2 2 2
1 2 6 7 12 10 7 9 10 9 4 6 3 2 5 2 1 3 1 2 8 3 3 4 3 3 3 3 7 15 16 15 14 14 13 12 11 10 9 9 9 10 9 10 11 11 12 12 13 10 11 12 11 11 9 10 11 12 11 11 11 10 9 8 8 8 7 7 8 8 7 6 6 5 4 5 5 5 5 6 6 7 6 6 5 4 4 4 4 4 3 2 2 2 3 1 2
3 7 9 11 8 12 10 11 11 7 10 7 7 8 7 7 3 5 4 8 8 5 4 3 6 6 3 7 13 16 17 17 16 17 15 13 11 11 10 10 11 11 11 10 11 12 11 11 13 12 11 12 11 9 8 8 9 11 9 9 9 9 8 8 6 6 5 5 6 5 5 4 4 5 5 5 4 4 5 6 6 6 6 5 5 4 4 5 5 5 4 3 2 1 1 0 1
9 3 6 15 9 7 12 11 12 8 9 8 11 10 10 8 6 5 4 5 7 6 2 2 5 6 8 11 14 17 17 16 18 17 17 17 13 14 11 10 11 11 11 9 10 11 10 10 11 11 10 11 10 9 8 8 9 8 9 8 7 7 7 6 5 5 4 4 3 3 3 3 3 3 3 3 5 5 5 5 6 5 5 7 6 5 5 5 6 5 5 4 2 2 2 2 2
7 6 11 12 4 6 11 11 11 10 9 10 7 6 10 4 4 5 5 7 6 6 5 4 6 7 10 13 15 16 17 17 18 18 18 16 13 14 12 12 11 12 11 9 11 9 9 9 11 10 10 11 9 7 7 8 7 6 7 6 6 6 6 5 4 4 4 3 2 2 2 2 2 2 2 4 4 3 3 4 5 4 4 4 7 2 2 5 3 5 5 2 3 2 2 2 3
5 6 11 4 6 7 9 8 11 10 9 10 8 4 8 5 5 7 6 5 6 5 8 9 12 14 14 15 17 17 18 18 18 17 16 14 13 11 11 11 10 11 10 9 8 10 10 10 10 10 10 10 10 8 7 7 7 5 6 6 6 6 5 5 4 3 3 2 1 1 1 1 1 1 1 2 2 3 3 2 3 3 3 2 3 2 2 2 2 4 4 3 4 3 3 3 3
6 12 5 5 5 10 5 10 6 7 1 6 6 9 8 5 4 7 10 9 5 7 10 11 9 16 18 19 18 17 18 19 19 18 15 15 15 12 9 8 8 9 9 10 10 10 11 10 10 10 10 9 9 8 7 7 7 6 6 5 5 5 5 5 4 3 3 2 1 0 0 1 1 1 1 2 3 2 3 3 3 3 3 2 1 2 1 1 2 3 3 4 3 3 3 3 4
10 6 6 5 7 9 2 6 5 6 5 6 6 5 5 6 4 2 5 8 1 1 3 10 10 17 17 18 19 19 19 20 20 17 15 15 14 12 11 10 10 11 10 9 11 10 11 11 10 9 9 9 10 7 7 7 6 5 5 5 5 5 4 5 4 3 2 1 1 1 1 1 1 2 2 2 3 3 3 3 3 3 2 2 1 1 1 2 2 3 4 4 3 4 4 4 4
9 8 6 9 6 10 4 6 5 6 5 6 2 2 6 7 8 3 5 2 4 6 6 7 9 13 16 19 20 21 22 21 18 14 14 13 13 12 11 10 10 9 10 10 10 10 11 10 10 10 9 9 8 7 8 7 6 5 4 5 5 5 4 4 4 3 1 1 2 2 2 1 1 2 2 2 3 3 3 3 3 3 2 2 2 2 2 3 3 3 3 4 4 4 4 4 4
12 10 6 3 5 7 5 3 3 5 5 2 2 5 4 6 3 6 3 5 4 6 6 9 11 14 16 17 20 18 18 17 17 12 9 7 6 8 9 8 9 10 11 11 10 11 11 9 9 10 10 10 8 7 8 6 6 4 4 5 5 5 3 3 3 3 2 1 2 2 1 1 2 2 2 3 2 3 3 3 2 3 3 3 2 2 2 3 3 3 3 3 3 3 3 3 3
13 8 5 3 5 7 7 4 4 5 3 4 5 4 2 3 7 4 3 4 4 3 8 11 13 15 18 18 18 18 18 18 16 11 11 7 6 9 11 10 11 12 11 11 12 11 10 9 10 11 10 10 8 8 7 6 6 5 5 5 4 5 3 3 3 2 2 2 2 2 2 2 2 1 3 3 3 3 3 3 3 3 3 2 2 2 2 2 2 3 3 3 4 3 4 4 3
4 8 7 7 5 4 5 11 9 5 3 4 8 4 4 4 6 6 4 4 5 8 10 12 15 16 16 15 15 15 15 16 17 10 9 9 8 10 12 11 11 11 11 11 11 11 10 10 10 10 10 9 8 8 7 6 6 6 5 4 5 4 4 3 2 2 2 3 3 3 3 3 3 2 2 3 3 3 3 3 3 3 3 3 2 2 2 3 3 4 4 3 4 4 4 4 3
2 7 9 9 7 6 3 2 4 3 4 7 4 2 1 2 4 4 8 9 10 11 12 13 14 14 14 14 14 13 13 13 12 12 14 14 11 11 12 11 12 11 11 12 10 10 10 11 11 10 9 9 9 8 7 7 7 6 5 4 4 4 4 3 3 2 3 3 3 3 3 3 3 3 4 3 3 4 4 4 3 3 3 3 3 2 2 3 3 4 5 4 4 4 4 4 4
3 5 7 8 8 11 13 10 4 7 7 8 9 5 9 7 6 7 11 11 12 11 13 14 14 13 13 13 13 13 13 13 12 13 14 12 10 10 12 11 12 12 9 11 11 11 12 12 11 11 10 10 10 9 8 7 6 6 5 5 4 4 3 3 3 3 3 3 2 3 3 4 4 4 4 4 5 4 4 4 4 4 4 3 2 3 3 2 3 3 4 3 3 3 4 4 4
2 3 3 5 6 10 16 9 7 8 4 9 11 10 14 12 7 9 12 12 11 11 11 13 12 13 12 13 13 13 12 13 14 13 12 11 10 10 12 11 11 11 9 9 11 12 10 9 9 9 10 11 10 8 7 7 6 5 5 4 4 4 3 4 4 3 3 3 2 2 3 4 5 5 5 5 5 5 4 4 4 4 3 3 3 2 3 3 4 4 4 3 4 3 4 4 4
9 4 4 9 7 8 12 12 15 11 5 9 13 15 6 8 7 11 13 13 15 13 12 13 13 13 13 12 12 12 12 13 13 13 12 11 9 9 11 11 12 11 9 10 12 12 12 11 10 9 10 9 8 9 8 7 6 6 5 5 4 4 4 4 4 4 4 3 3 2 3 5 5 6 6 5 5 5 5 5 4 3 3 3 3 3 3 3 4 5 4 3 3 4 4 5 5
7 7 11 11 13 3 7 12 17 18 4 8 11 12 7 7 9 13 14 13 13 13 13 14 14 14 14 12 13 12 13 12 11 12 11 11 11 10 11 12 11 11 11 10 11 12 12 12 11 9 8 9 8 8 7 7 7 6 6 6 5 5 5 5 4 4 4 3 3 4 4 6 6 7 6 6 5 4 4 4 3 3 3 3 3 3 3 4 4 5 5 4 3 4 4 5 4
8 14 9 12 13 7 5 7 14 17 12 7 18 6 5 4 8 12 14 15 15 12 13 13 14 15 13 13 12 10 10 10 9 11 11 10 11 10 10 12 12 12 11 11 12 12 12 11 11 10 10 9 9 9 8 8 7 7 6 6 6 6 5 5 5 4 4 4 4 4 5 6 7 6 6 5 5 5 4 4 4 3 3 3 3 3 4 3 3 4 4 4 3 2 3 5 5
11 13 12 7 14 10 8 6 4 14 18 12 15 9 3 2 12 14 15 16 16 13 14 15 15 14 14 11 10 10 11 10 11 12 11 10 10 12 11 11 12 11 10 11 12 13 13 12 10 9 9 9 8 8 8 8 7 8 7 6 6 6 6 6 6 5 5 5 5 6 6 6 5 6 6 5 5 5 5 4 4 3 3 2 3 3 4 3 3 3 4 4 4 3 3 4 5
14 12 11 4 5 11 11 8 8 14 18 17 13 15 6 1 9 14 15 16 16 16 15 17 17 15 14 10 9 11 11 12 11 9 10 10 11 12 11 11 11 11 9 11 11 12 10 9 8 10 10 9 9 9 9 9 8 8 7 7 7 7 6 5 6 6 5 6 6 5 5 5 5 6 6 5 5 5 4 4 4 3 2 2 2 3 3 4 4 4 4 4 4 5 4 4 4
7 11 6 6 8 10 12 8 7 17 16 15 16 15 11 6 11 13 12 16 18 16 14 12 12 13 12 10 10 10 11 12 9 9 9 9 9 11 10 9 8 9 9 9 11 9 9 10 10 9 8 9 9 8 9 9 8 7 8 7 7 6 6 6 6 7 5 5 5 5 5 5 6 5 5 5 5 4 4 4 4 3 3 2 3 4 3 4 4 5 6 4 4 5 6 4 4
9 7 8 9 8 4 1 10 8 14 13 16 15 14 13 11 14 16 14 13 17 15 15 14 13 13 11 11 12 13 13 11 7 9 8 10 11 10 8 8 8 9 9 10 10 10 11 10 9 9 9 8 4 4 4 8 9 7 7 8 7 6 7 7 6 4 4 5 5 6 6 5 6 6 5 4 5 4 4 4 3 3 3 3 3 4 4 4 4 5 5 5 5 5 6 5 3
4 12 12 8 11 8 10 13 6 10 10 7 6 13 14 14 13 15 15 11 16 16 16 16 17 15 13 14 15 17 14 7 8 8 9 11 11 11 8 8 9 10 9 9 9 9 8 10 10 10 8 10 9 9 8 8 8 9 8 7 7 7 8 6 5 4 5 5 6 6 6 6 6 6 4 4 4 3 4 4 4 4 3 4 4 4 5 4 4 4 3 5 6 6 6 6 3
2 7 11 9 10 6 5 6 5 8 10 4 9 12 12 12 13 14 18 18 17 17 19 19 19 17 14 14 15 14 11 11 9 11 10 10 12 11 9 9 9 10 10 10 12 10 10 9 9 9 10 12 10 11 10 9 9 8 9 8 9 6 4 3 5 5 5 6 6 6 6 5 5 5 5 4 4 4 4 4 4 3 4 3 4 4 4 5 4 5 4 3 4 5 6 6 6
2 3 9 12 10 12 9 6 3 2 5 4 8 11 5 6 9 14 16 17 16 17 18 17 15 16 17 17 16 14 13 12 12 12 12 11 11 11 10 10 10 11 11 12 11 12 10 10 9 9 6 8 10 11 9 9 9 9 9 9 7 6 7 6 7 6 6 7 7 6 6 5 5 5 5 5 4 4 4 5 4 4 4 4 4 4 5 6 5 4 4 3 2 5 6 8 8
6 4 3 6 10 13 7 8 4 5 2 5 10 6 2 7 10 11 12 13 14 16 17 17 16 15 12 8 10 12 13 13 12 12 12 12 13 13 12 11 10 10 12 13 13 10 9 10 11 10 9 9 8 9 11 11 11 9 8 8 8 9 6 6 7 5 4 5 5 5 5 5 5 5 5 5 5 5 5 4 5 5 5 5 4 5 5 6 5 5 4 3 3 5 6 5 7
6 7 6 4 10 11 5 10 11 7 4 7 14 4 8 9 12 12 10 10 14 13 15 16 18 18 12 11 11 11 11 11 12 13 12 12 12 11 11 11 11 11 9 8 8 10 7 8 10 12 14 12 10 11 13 12 12 13 10 9 8 8 7 5 7 7 4 4 5 5 6 5 5 6 5 5 6 5 6 5 5 6 6 5 5 6 6 6 6 6 5 4 5 4 5 6 7
8 6 10 5 5 5 9 12 11 9 11 10 6 13 5 4 12 13 12 13 15 10 13 14 16 15 13 13 14 15 14 10 10 10 11 12 12 10 11 11 11 9 7 9 9 7 8 10 14 14 11 10 11 12 13 12 12 11 13 10 8 8 8 3 5 5 5 4 4 6 5 5 6 6 6 6 6 6 6 6 6 6 6 6 6 6 6 6 5 5 4 5 3 2 1 6 7
12 3 8 9 5 5 6 7 10 1 6 6 6 5 6 4 10 13 15 16 17 13 14 15 12 14 15 15 15 16 14 13 11 12 13 13 12 12 12 12 10 7 9 9 8 9 11 10 11 11 10 11 12 12 14 12 11 10 8 8 6 5 5 7 6 6 5 5 5 6 5 5 5 6 6 6 6 7 6 6 6 6 7 6 6 7 6 5 6 6 6 6 5 5 5 5 6
6 4 9 9 9 6 3 3 3 2 7 7 10 4 6 7 4 13 16 16 18 18 15 18 15 14 16 17 15 12 11 10 13 12 13 13 14 13 12 11 10 10 10 10 11 10 10 9 10 11 11 11 12 14 12 11 10 8 9 10 8 5 7 7 7 6 6 5 7 5 6 6 6 6 6 6 7 7 6 6 6 7 7 7 7 7 7 7 8 7 6 6 6 6 6 6 7
4 5 4 4 4 4 5 2 3 3 7 12 13 12 11 4 4 10 15 17 17 18 18 19 21 20 19 18 17 17 13 11 13 14 14 12 13 12 11 11 11 10 10 9 10 9 10 10 11 12 12 11 11 13 12 13 11 11 9 9 11 7 5 7 7 7 6 5 6 6 5 5 5 6 6 7 7 8 7 7 7 8 7 7 7 8 8 8 7 8 8 7 7 8 7 7 8
5 8 7 5 4 3 3 0 2 3 6 13 13 14 11 6 8 11 14 16 15 13 13 17 20 21 21 20 19 16 16 15 12 13 13 13 10 11 11 11 12 10 10 10 9 10 11 11 12 11 12 11 13 13 13 12 9 9 9 11 10 10 9 9 9 8 7 7 7 6 5 5 5 6 6 6 7 7 7 7 7 7 7 7 7 7 7 7 7 7 8 9 9 9 8 9 9
12 11 10 7 2 3 3 2 2 5 9 4 9 13 10 12 8 10 12 6 17 16 18 21 23 23 21 19 18 17 17 13 12 13 14 15 14 14 12 12 12 12 11 11 11 11 11 11 11 13 12 12 11 13 12 11 11 8 9 11 10 10 11 9 10 10 9 8 7 7 6 6 6 6 6 6 6 6 6 6 7 7 7 7 7 6 6 7 7 7 7 7 8 8 8 8 8
11 11 12 11 6 4 4 4 5 10 8 2 5 13 5 17 3 7 14 13 14 19 17 20 22 22 20 19 18 17 17 13 11 14 14 14 15 14 13 12 13 12 11 13 13 12 12 11 13 12 12 12 11 13 13 12 9 9 9 9 9 8 9 10 10 9 8 8 7 7 7 7 7 7 6 7 6 7 7 7 7 6 6 6 7 7 7 7 7 7 8 8 8 9 8 9 9
12 15 15 13 10 8 6 11 3 1 2 1 7 15 11 3 5 8 13 17 17 20 21 19 20 20 19 17 16 14 14 16 13 12 15 14 14 13 12 13 13 11 12 13 12 11 10 10 12 12 12 10 10 12 13 10 8 8 9 9 9 9 9 8 7 8 7 6 6 7 7 7 7 7 7 7 6 7 6 7 7 8 7 8 8 8 8 7 8 8 8 9 9 8 9 10 10
11 3 11 12 11 7 8 9 8 7 5 3 4 9 5 10 3 12 15 16 16 17 18 16 14 10 9 11 12 14 14 17 15 12 14 15 15 14 11 14 13 12 13 12 12 10 10 11 11 12 12 11 11 12 12 12 8 8 7 8 8 8 7 7 6 6 6 7 6 7 6 6 7 7 7 6 7 7 8 8 8 8 7 8 8 7 7 8 8 8 8 8 8 8 9 9 9
6 3 3 3 10 2 3 1 2 5 6 4 7 4 1 4 3 3 1 6 13 12 11 10 10 7 8 10 13 16 17 17 15 13 15 16 16 14 12 12 13 13 14 11 12 10 10 11 11 11 11 10 10 12 12 10 8 8 10 10 9 9 8 7 6 5 5 6 7 7 7 7 7 7 7 7 7 8 8 9 8 8 8 8 8 8 8 8 8 8 8 8 9 6 9 10 9
10 6 12 7 5 4 4 2 4 2 2 5 2 4 3 4 1 4 2 6 8 10 12 11 11 11 13 13 15 16 17 17 15 12 14 17 16 15 14 13 13 14 14 14 13 11 13 12 11 11 10 10 10 11 10 9 8 9 9 9 9 9 9 10 8 9 8 7 7 7 7 7 8 7 7 7 8 8 8 8 9 8 8 8 8 8 8 8 8 8 8 9 9 8 9 9 8
6 9 7 5 3 3 2 3 1 3 6 3 3 8 2 5 4 2 3 9 10 11 15 15 14 13 15 15 15 17 18 19 17 14 15 17 18 18 15 14 15 16 15 15 15 14 13 12 12 13 13 12 11 11 9 7 9 8 10 9 8 8 9 8 8 9 8 8 7 7 8 8 7 7 7 7 8 9 8 9 8 8 8 8 8 8 8 9 9 8 9 8 8 8 9 8 8
10 9 5 11 5 8 1 1 4 6 6 2 4 3 4 8 7 3 5 9 11 12 13 13 14 15 16 16 17 16 17 15 16 16 16 17 17 17 17 14 16 15 14 14 15 14 14 12 12 13 13 9 11 10 10 8 7 7 8 10 10 8 8 8 7 8 8 9 9 8 8 8 8 8 8 8 9 9 8 8 8 8 8 8 8 8 8 8 9 9 8 8 7 8 8 9 8
4 7 8 1 1 6 6 2 1 3 2 2 4 3 5 7 6 8 10 13 13 13 13 16 18 20 18 16 15 18 19 18 15 14 14 16 18 19 18 16 15 15 14 13 14 13 15 14 12 10 11 11 12 13 11 10 9 7 7 8 9 8 8 9 9 9 9 9 9 9 9 9 8 7 8 9 9 9 9 9 8 9 9 8 9 8 8 8 8 8 8 8 7 9 10 10 8
8 12 9 4 2 2 1 1 3 2 1 4 3 5 3 4 7 8 11 13 15 16 16 16 17 18 19 18 17 18 20 20 14 13 14 16 18 17 17 16 14 13 11 11 12 14 13 13 13 12 13 13 12 10 10 9 8 8 11 11 10 9 9 8 9 9 10 9 9 9 8 8 8 8 8 9 9 9 9 9 10 9 9 9 9 8 7 8 8 8 8 8 8 9 10 9 8
9 10 9 9 9 8 12 10 3 1 1 1 4 7 1 5 6 12 14 13 13 15 18 18 18 19 17 14 15 16 16 19 15 13 15 16 18 18 17 16 15 13 13 14 13 12 13 14 13 12 12 15 14 9 9 9 8 9 11 11 11 9 9 9 10 9 10 10 9 8 9 9 9 8 8 9 10 8 8 9 9 10 9 10 9 9 8 8 9 9 8 6 8 9 10 9 8
Wind_Direction
331 335 335 152 157 110 162 305 228 56 271 52 91 88 83 256 286 347 23 352 10 78 57 279 171 145 215 97 79 101 53 222 109 283 354 51 32 144 155 147 136 143 146 148 150 155 151 141 141 141 145 147 148 143 143 142 141 137 131 126 124 124 121 119 118 119 121 121 120 118 116 114 111 109 105 98 96 94 97 99 98 94 84 85 87 90 92 90 94 99 106 107 110 107 105 103 103
322 329 314 166 168 211 226 71 98 272 90 109 87 287 100 223 264 15 13 1 321 332 359 318 126 68 83 104 112 127 113 11 5 21 35 127 135 131 141 145 141 144 146 148 152 154 152 143 142 141 148 148 149 145 145 144 142 135 128 125 125 123 121 122 121 122 121 121 119 116 114 109 106 103 101 98 99 100 104 98 94 88 83 82 83 84 91 97 98 103 109 112 112 108 104 104 103
327 339 77 141 190 83 89 342 311 62 11 331 113 153 327 127 75 329 343 327 317 313 339 99 170 118 135 127 156 320 73 118 132 133 98 146 148 146 151 147 142 143 144 149 152 154 151 144 142 144 149 149 149 148 148 145 138 131 128 127 126 125 126 124 123 122 121 119 116 115 112 109 106 104 105 103 102 99 88 90 92 83 78 73 72 73 82 89 94 104 111 114 111 109 106 104 105
316 195 342 314 310 67 28 27 60 95 75 347 23 171 229 61 84 348 313 294 309 281 348 61 253 77 283 238 40 102 96 176 272 154 151 178 153 144 149 148 146 143 146 149 153 153 155 141 144 147 150 150 150 148 147 141 136 133 132 132 130 130 127 125 123 122 120 118 116 113 111 110 109 108 108 108 103 97 88 81 78 81 75 71 68 68 73 87 109 110 111 113 113 110 109 107 101
322 307 337 82 264 357 50 55 137 150 229 172 102 148 198 176 328 219 290 304 310 13 359 22 261 87 40 54 67 279 85 83 144 177 140 146 122 148 151 150 148 149 149 150 152 153 148 143 144 146 149 150 150 146 143 138 137 136 135 133 131 129 128 127 126 125 123 120 117 115 112 110 109 108 105 103 95 87 84 81 81 84 86 84 82 83 85 91 97 106 110 112 112 110 109 105 104
233 307 5 354 334 55 103 264 264 253 202 141 221 157 165 185 242 174 306 298 306 340 355 294 315 2 163 18 4 60 330 176 102 171 168 160 151 152 153 151 149 145 147 151 152 154 151 143 143 146 148 150 150 144 142 140 140 139 137 133 131 131 130 129 128 125 123 121 117 114 111 108 105 105 101 96 97 93 88 82 76 75 79 77 78 84 88 93 101 102 106 111 107 106 106 104 99
354 337 5 52 85 325 270 234 259 272 166 185 248 164 160 144 206 144 211 308 45 16 110 345 177 182 198 135 124 67 329 292 204 153 173 152 150 153 152 150 145 145 149 152 156 155 151 142 141 145 148 151 152 144 143 143 142 141 137 133 133 133 131 129 127 126 124 119 115 114 111 108 105 101 96 90 86 85 82 80 77 73 72 72 71 81 89 94 95 96 98 100 104 105 104 101 96
129 262 1 302 359 327 192 258 246 157 194 178 257 230 173 142 161 173 179 339 3 340 56 304 252 276 327 186 277 67 25 7 346 125 128 150 153 154 153 147 145 148 151 152 156 156 142 139 140 146 149 154 152 146 146 145 144 140 137 136 136 134 132 129 126 125 123 119 118 114 112 108 102 95 90 83 80 80 84 84 83 80 78 79 79 80 83 87 92 96 101 105 105 103 100 96 93
345 89 299 194 198 41 111 213 252 86 291 276 253 199 218 151 159 174 155 166 334 249 277 255 214 258 126 119 73 7 35 26 127 132 139 152 157 153 151 152 150 151 154 155 155 156 147 138 141 146 149 153 153 149 148 146 144 141 140 138 136 132 130 127 126 124 122 119 116 112 107 101 93 85 78 74 72 73 77 81 82 83 81 80 78 76 85 92 97 102 102 100 100 99 99 95 95
83 292 212 146 86 217 200 201 228 230 244 285 291 299 310 104 130 137 206 239 231 201 247 301 259 265 106 132 172 12 22 86 126 133 145 154 152 151 151 154 153 153 153 154 155 154 147 141 136 142 150 153 155 153 148 144 143 143 141 138 135 131 129 125 121 122 121 117 110 107 99 94 88 86 82 78 76 77 78 80 81 81 81 80 78 78 78 86 93 97 100 98 96 91 86 90 91
185 43 27 195 187 220 205 210 229 233 251 285 285 256 258 109 143 147 185 211 226 223 175 197 163 157 164 117 39 352 217 143 143 145 152 154 155 154 150 153 154 157 152 153 154 151 147 146 137 144 152 154 153 148 142 142 142 141 139 137 134 132 128 125 123 121 120 114 107 101 98 98 96 92 88 85 85 85 86 87 88 88 86 84 79 75 76 78 81 86 89 94 92 91 89 85 81
181 175 160 218 215 216 196 223 213 230 248 303 271 283 227 142 136 181 173 202 188 215 212 182 194 153 143 134 167 141 156 162 156 150 155 156 157 154 154 153 157 157 153 153 154 152 150 147 148 151 155 147 145 141 144 144 143 139 140 138 133 130 127 124 122 121 117 110 107 107 107 105 100 97 98 95 89 86 86 89 90 90 88 85 83 80 76 71 71 72 78 80 79 81 80 77 75
221 116 172 219 211 211 157 214 210 224 238 230 245 247 352 203 253 240 169 145 165 315 41 194 125 191 136 177 29 206 184 175 161 159 159 161 156 156 155 154 156 153 156 157 155 153 152 151 151 156 160 147 147 147 147 143 142 141 140 137 132 129 127 125 123 119 114 113 114 114 111 108 106 106 102 99 92 86 86 89 92 93 90 90 87 83 81 74 67 64 70 71 78 81 84 81 68
218 192 151 230 63 196 181 200 145 210 225 220 224 268 316 275 137 129 140 190 212 299 19 167 160 123 94 113 227 211 201 170 162 161 161 158 155 156 153 151 153 155 159 158 156 153 155 154 155 157 160 156 155 155 150 144 145 145 133 132 129 128 125 122 120 117 118 121 117 113 112 112 111 107 104 99 97 90 87 89 88 87 86 86 86 85 86 80 74 69 66 69 75 80 82 85 80
226 142 201 254 186 189 186 202 185 198 233 191 213 216 247 197 134 133 240 298 102 316 56 106 56 211 188 180 204 205 178 167 162 161 157 153 152 151 151 153 155 158 158 158 155 155 158 157 156 156 160 158 159 164 155 147 149 143 139 133 131 128 123 120 118 120 122 122 119 117 116 114 110 107 104 101 100 95 88 92 81 75 75 76 79 85 86 84 81 72 67 59 72 87 92 94 103
180 165 209 215 214 198 187 210 166 202 207 191 232 262 359 226 132 226 132 319 101 113 284 133 165 307 83 204 240 172 159 160 160 157 152 152 150 150 153 156 160 162 159 157 158 158 163 163 159 158 160 160 164 162 158 156 149 145 140 136 135 129 124 119 120 123 124 124 120 116 108 107 101 92 80 102 91 90 77 67 74 74 75 73 74 77 85 88 85 81 68 56 43 42 39 43 52
112 261 215 217 232 191 165 191 159 207 150 215 221 185 219 215 35 79 35 161 134 110 60 24 331 333 243 252 129 142 152 154 154 156 155 155 156 156 158 163 165 163 164 165 165 165 165 167 163 163 162 163 165 162 158 157 150 144 144 141 137 130 124 125 124 125 126 119 116 103 110 105 105 102 97 87 100 79 66 75 69 70 66 60 44 49 74 83 84 85 80 66 34 23 18 343 26
167 208 220 224 212 197 161 183 181 158 188 196 202 209 201 230 196 127 150 78 91 101 86 41 47 46 62 111 128 137 150 156 160 162 165 163 166 165 169 173 172 172 169 167 168 168 165 168 170 165 163 165 166 162 161 158 154 153 150 146 143 134 132 133 133 126 118 118 107 122 112 114 112 109 103 105 96 99 96 71 72 61 48 40 19 23 48 64 70 73 77 70 60 32 316 302 83
193 190 217 233 180 210 154 179 182 148 198 176 200 195 195 214 158 165 204 147 137 107 55 82 73 75 101 118 134 147 158 162 167 171 170 171 173 171 172 172 177 171 172 168 170 171 169 166 170 168 165 164 165 162 160 157 151 147 149 145 136 135 134 132 130 122 114 104 98 98 103 103 118 112 109 81 84 78 60 53 51 52 43 28 17 6 31 54 62 68 69 76 66 209 205 76 68
211 198 217 227 143 178 201 168 187 206 172 198 178 193 198 186 179 120 220 172 173 171 163 185 177 154 152 147 152 156 165 169 174 176 177 175 174 174 172 173 175 174 168 170 169 169 170 171 167 166 165 165 166 165 160 151 153 149 154 148 139 139 134 134 128 124 114 90 92 77 92 108 100 112 77 74 86 89 89 74 51 52 49 41 7 342 23 57 84 97 82 86 170 105 72 70 62
155 214 228 191 156 186 206 209 186 202 190 200 189 105 185 204 180 174 147 149 207 220 201 185 189 174 166 163 163 164 171 175 179 182 179 177 178 180 177 175 170 166 168 159 161 170 175 171 165 165 167 167 168 163 157 152 148 154 157 145 145 141 141 139 135 130 124 117 77 42 48 67 55 58 56 78 75 77 70 61 60 45 38 53 14 35 3 45 50 82 103 103 70 67 62 53 38
138 217 193 133 162 213 167 206 215 204 254 218 124 161 185 112 131 169 168 222 219 207 212 220 184 167 165 169 171 172 177 181 184 186 184 180 179 179 174 159 156 163 164 167 162 172 174 171 166 165 166 168 169 164 160 155 153 153 151 145 152 149 147 144 138 137 138 133 121 337 300 56 29 47 51 58 69 67 58 56 58 48 39 34 34 56 48 19 71 79 77 73 70 70 68 57 54
209 216 213 179 172 194 170 188 208 208 187 195 174 187 109 162 144 233 210 211 129 203 277 210 180 171 170 166 168 177 183 187 189 188 182 182 180 182 169 164 162 167 168 172 163 169 175 172 165 165 168 170 168 163 160 163 155 155 151 159 159 155 156 148 145 145 130 117 78 83 103 113 106 102 72 58 64 56 58 51 48 55 54 44 352 32 63 45 55 73 78 79 77 71 63 64 67
242 214 151 194 158 189 154 189 179 191 205 202 108 123 160 145 172 152 200 269 261 265 254 211 171 161 160 168 179 183 187 190 190 189 189 185 179 177 167 163 165 161 166 166 173 176 178 173 166 167 168 172 164 165 162 162 161 151 147 160 169 160 160 153 146 144 155 115 110 123 117 124 110 100 82 75 70 67 65 55 57 65 72 50 21 16 45 63 64 69 76 78 74 70 73 69 67
215 237 170 156 183 192 198 165 166 158 199 101 133 176 159 184 172 138 207 254 269 252 216 183 156 161 173 178 183 189 191 192 192 188 186 182 172 155 165 166 162 164 167 169 172 176 180 178 167 174 172 169 167 165 164 165 160 148 158 172 170 165 159 152 149 154 160 122 130 117 123 111 91 89 93 87 82 68 74 72 74 71 63 48 18 59 48 64 67 65 68 74 79 82 83 75 71
218 212 153 173 186 196 208 207 185 155 136 169 197 206 199 192 132 160 180 236 244 211 173 164 162 173 181 188 188 188 191 193 189 185 188 175 150 160 175 175 171 173 171 170 171 175 175 177 179 179 174 171 166 168 168 165 164 158 169 175 168 167 159 157 164 151 138 133 124 98 87 109 98 108 100 100 90 86 91 102 83 70 67 54 41 64 58 50 63 73 75 73 78 78 73 67 62
173 195 193 198 189 176 190 213 207 167 176 165 203 166 190 157 197 212 219 192 178 160 164 171 177 186 187 191 192 193 191 192 191 181 180 180 172 181 183 181 179 174 171 172 172 173 170 176 184 178 176 174 168 173 170 165 164 165 169 169 171 168 159 163 157 130 122 127 121 122 129 130 130 113 108 106 106 111 106 90 82 78 68 54 53 60 44 50 55 53 49 52 58 63 65 58 53
110 174 194 216 219 238 187 157 212 149 209 181 180 169 86 169 203 209 168 176 174 164 171 178 187 191 193 194 192 193 195 193 192 192 191 187 188 187 185 186 181 175 177 176 174 169 171 177 178 171 171 173 172 172 167 165 165 163 160 159 172 155 156 155 146 133 128 117 120 127 133 127 123 119 112 112 102 106 106 90 81 81 72 63 62 62 52 53 65 66 61 60 49 51 62 60 56
178 173 175 203 214 227 224 220 169 177 213 177 171 230 230 180 214 161 165 169 174 170 174 183 191 194 195 195 193 194 197 193 195 200 199 195 193 191 187 190 181 178 181 177 173 169 173 177 177 178 175 176 183 173 167 163 158 160 160 161 159 156 150 143 135 130 125 124 135 136 135 130 128 121 116 102 106 108 109 104 87 79 80 72 65 58 69 69 79 80 72 61 54 57 58 59 62
149 201 209 159 184 229 213 206 177 179 189 163 153 232 229 189 176 169 162 168 169 172 182 189 193 195 198 196 195 197 197 197 200 202 197 198 196 188 188 187 185 183 176 176 172 172 170 173 175 178 185 183 178 173 167 163 156 149 144 146 143 145 143 137 130 130 131 136 139 131 126 119 123 124 123 116 111 111 110 104 91 82 56 56 48 43 58 44 58 60 55 61 49 48 54 50 60
201 157 198 222 190 228 173 192 180 196 164 172 183 232 214 151 162 175 171 170 171 183 189 193 194 197 198 196 196 198 199 202 201 201 200 199 195 190 193 186 187 186 176 176 178 172 170 172 175 181 181 176 171 171 167 157 146 140 140 138 142 140 135 134 135 135 141 143 136 114 115 112 120 125 121 118 114 114 112 104 89 76 67 59 61 51 56 61 58 52 34 46 55 50 54 52 58
180 166 211 211 215 175 163 186 174 198 151 192 186 240 231 154 181 178 177 179 181 186 191 195 198 198 198 196 198 197 201 202 204 202 201 201 198 192 194 194 190 186 182 176 176 173 172 173 173 168 162 166 168 164 158 144 135 135 134 136 135 134 131 134 136 138 141 132 120 115 115 114 121 121 120 121 120 115 104 92 80 69 57 69 60 56 52 63 60 59 44 27 40 45 50 68 70
200 209 206 195 203 195 123 204 192 194 142 207 196 214 102 218 184 185 183 185 190 193 194 197 200 199 197 198 195 192 192 198 203 202 200 200 204 202 198 196 194 192 184 179 178 173 172 169 166 157 160 159 163 154 141 129 129 129 129 127 124 129 132 131 133 137 132 122 121 119 118 118 119 103 105 104 102 106 100 89 76 64 49 61 64 58 63 56 64 70 59 42 29 43 51 77 84
204 207 222 193 194 179 203 97 216 183 171 193 214 224 150 74 172 181 186 192 194 200 199 202 203 200 200 195 191 191 198 199 202 198 194 194 201 204 203 198 196 189 186 187 184 179 173 169 159 149 151 155 154 139 127 122 125 123 120 120 126 127 127 129 130 128 121 121 123 121 122 110 100 103 101 99 93 89 89 91 85 68 73 70 72 70 69 66 63 65 73 50 34 27 46 68 95
195 189 205 162 183 177 191 165 166 184 189 199 193 217 179 161 174 182 186 189 196 202 202 202 203 203 201 195 195 199 204 208 206 196 192 192 197 203 204 201 193 187 185 189 186 183 169 152 146 146 150 149 134 120 118 121 121 117 116 123 127 124 119 117 124 121 122 124 121 119 107 102 101 99 100 100 104 103 101 98 95 81 83 82 85 89 84 72 70 65 68 70 55 45 47 57 92
220 185 178 142 170 184 196 184 139 181 187 205 190 202 180 165 177 187 189 187 195 205 206 206 207 210 206 200 201 205 210 214 204 188 186 190 195 198 200 194 179 185 183 184 190 171 156 148 148 145 140 126 123 133 134 131 131 131 130 124 117 117 116 118 119 125 122 111 105 103 101 101 101 97 100 102 100 99 101 94 95 92 82 71 63 59 56 59 60 68 60 51 61 72 55 72 109
122 113 167 198 187 135 124 195 174 193 178 203 198 196 179 178 182 189 192 184 199 204 204 204 205 206 202 203 206 210 212 210 189 182 185 192 194 198 192 183 174 168 173 185 175 172 162 145 138 124 107 117 128 115 121 137 139 139 137 131 127 128 124 119 116 104 99 101 99 95 94 94 99 98 90 96 103 104 100 99 88 74 72 68 68 64 62 70 66 70 69 50 35 53 52 45 67
167 176 181 180 192 192 179 192 163 202 197 188 177 189 187 183 183 186 190 183 196 198 199 205 206 206 206 205 212 215 213 192 171 182 193 196 194 194 179 184 168 160 164 169 172 173 151 139 126 122 138 146 147 150 158 166 159 156 148 142 133 132 132 126 118 105 101 93 84 83 83 80 82 83 81 78 86 90 97 88 77 71 68 73 72 70 68 73 69 65 65 71 44 49 54 23 27
28 188 177 179 192 165 168 207 172 186 212 181 168 192 191 184 183 183 190 196 199 203 205 203 202 202 205 206 213 212 204 204 190 197 195 201 199 193 180 180 170 167 164 144 178 162 153 148 133 135 153 161 157 161 164 169 164 151 141 139 135 115 51 78 102 99 97 90 78 76 73 71 73 78 78 75 72 69 81 86 79 73 66 75 83 75 72 69 58 59 52 74 77 58 62 43 34
245 187 179 194 164 172 182 192 116 137 220 157 173 188 170 197 197 194 195 195 200 203 207 208 203 206 208 208 208 204 204 198 195 195 198 199 199 190 184 177 169 159 155 162 177 165 171 156 131 123 139 161 171 169 164 154 149 138 131 128 111 118 125 107 96 92 91 88 74 69 69 71 76 85 84 90 86 81 80 87 87 78 73 62 69 79 70 67 62 64 58 57 57 83 53 41 28
217 236 215 174 159 191 178 159 136 121 55 150 141 163 182 203 200 204 205 206 208 210 215 214 209 210 209 207 209 206 201 198 195 195 196 199 200 194 188 176 165 169 172 167 172 169 172 158 129 136 161 175 168 160 149 132 124 107 93 84 99 99 113 126 113 91 81 88 91 70 72 75 84 86 80 82 90 86 83 83 85 82 78 68 70 73 67 58 59 59 55 55 54 93 95 75 41
203 227 225 202 182 169 108 129 143 173 175 190 157 161 220 191 208 202 183 192 211 209 212 213 210 207 194 199 206 205 204 194 195 194 196 198 199 190 179 173 174 177 176 142 136 169 137 109 130 163 171 166 158 153 142 140 144 142 134 131 134 139 138 143 133 130 126 103 95 97 84 80 83 80 84 89 89 89 84 83 85 89 81 73 68 71 72 70 59 64 54 70 75 75 108 102 82
203 212 201 186 111 132 146 160 170 183 200 189 239 212 192 153 203 199 187 194 202 195 207 210 208 204 197 203 205 206 205 192 196 191 192 194 197 182 174 177 177 171 137 131 156 130 127 151 158 166 160 157 153 153 153 153 154 153 150 144 140 146 137 89 84 95 108 103 104 97 92 81 84 93 89 89 89 91 90 87 85 83 82 81 77 75 71 67 67 60 63 69 66 65 107 104 97
205 134 163 183 189 131 143 173 204 199 38 112 193 233 223 196 214 194 192 197 202 201 200 205 197 194 199 206 209 209 204 204 201 197 195 197 194 184 181 178 173 157 134 136 143 145 158 163 166 164 158 155 157 159 163 162 156 157 136 111 119 129 127 128 119 102 97 111 105 98 97 88 85 88 94 92 95 94 92 88 86 84 83 79 79 75 74 73 78 70 68 72 68 61 63 86 86
178 129 148 169 188 183 151 153 165 148 181 188 201 173 216 224 142 180 189 200 208 211 202 204 200 197 202 207 203 196 193 206 212 204 204 199 196 191 180 174 169 143 135 158 157 157 155 160 165 168 158 156 159 162 165 161 147 121 132 143 136 113 121 121 118 114 110 107 102 97 95 96 91 85 88 92 90 90 89 88 83 83 83 83 83 82 77 76 76 80 76 72 70 66 63 67 80
147 157 130 113 153 171 206 205 154 144 201 211 194 184 214 176 147 183 195 207 205 208 208 210 211 210 210 208 208 205 192 195 203 198 199 197 198 189 178 168 167 149 140 167 151 150 150 158 173 173 151 154 156 160 167 157 132 134 141 130 125 136 128 124 124 122 119 117 107 106 108 109 108 100 90 88 90 90 90 89 86 84 84 83 81 84 87 84 82 79 76 78 78 78 68 68 73
127 140 155 124 120 145 95 77 170 160 222 226 182 181 213 226 186 195 187 209 200 196 208 215 216 219 219 216 204 198 198 196 199 199 190 189 188 182 170 171 171 149 149 159 151 149 151 167 180 165 154 156 159 163 167 154 134 136 133 138 141 142 142 136 130 127 127 124 123 123 117 112 109 106 101 91 92 97 93 89 89 87 86 86 88 91 90 93 90 88 84 79 74 77 77 77 78
166 187 194 168 180 130 166 117 204 210 234 162 150 184 186 228 191 205 204 167 194 193 199 206 213 215 214 209 203 199 199 193 191 198 193 189 188 184 175 171 165 159 150 157 151 151 160 174 168 160 161 160 158 159 158 153 143 138 139 141 140 147 147 145 138 135 140 137 136 130 126 119 114 109 104 102 97 100 99 94 95 94 91 91 89 93 96 96 93 89 85 83 82 79 80 79 79
192 172 188 187 174 181 187 173 189 217 223 75 175 150 168 231 212 174 194 205 192 198 204 207 210 213 210 207 191 198 201 183 183 197 189 189 191 185 173 173 167 161 158 160 153 157 167 174 172 159 163 165 160 156 157 153 140 141 138 140 139 142 142 139 138 137 142 143 143 140 137 129 127 119 113 111 110 112 111 109 107 103 98 95 100 98 95 93 91 90 89 86 82 78 76 77 76
189 183 183 185 182 181 190 198 211 109 55 95 173 166 227 60 238 204 199 201 197 197 207 212 209 207 200 189 181 182 188 197 195 196 191 187 183 178 173 175 171 162 161 157 152 154 164 178 172 159 165 163 160 156 151 144 136 142 155 142 143 141 136 133 132 137 141 140 144 138 137 136 129 123 123 118 123 119 109 106 103 100 101 105 102 97 97 95 96 97 93 91 88 85 83 80 78
191 199 194 195 187 184 179 192 190 203 156 101 182 169 232 180 204 174 193 203 207 208 210 211 214 208 181 167 176 187 191 204 201 194 192 183 175 169 171 174 169 164 163 154 155 158 163 180 171 165 163 166 162 159 147 146 153 161 135 131 134 135 130 126 128 133 138 139 133 130 129 126 123 124 122 120 123 116 111 109 108 110 113 109 104 102 100 98 97 99 96 94 90 86 83 80 77
193 168 345 202 202 39 161 55 119 120 131 101 169 214 292 170 66 357 234 204 207 211 218 218 218 203 167 173 183 195 202 202 196 194 194 181 172 169 171 169 169 167 169 158 158 159 165 176 174 161 155 165 165 160 158 154 150 147 142 135 138 131 129 125 121 127 131 131 130 131 127 121 120 121 119 124 122 122 117 113 113 113 113 110 107 106 107 106 106 105 102 98 94 90 89 85 84
171 173 203 199 89 106 90 70 29 41 136 196 122 252 233 296 218 45 160 181 199 206 213 211 207 188 177 188 195 198 202 204 195 191 192 183 171 169 176 169 165 167 171 167 162 163 169 170 168 150 144 170 153 156 153 153 142 136 135 138 136 135 139 142 140 138 131 124 124 125 124 122 121 120 122 121 122 119 119 119 119 119 115 112 109 109 112 111 109 105 104 102 96 93 88 84 81
121 204 182 71 46 18 159 178 107 201 202 179 168 209 165 171 183 101 134 183 192 194 202 200 195 183 187 196 198 197 196 201 194 186 184 181 178 174 170 173 165 165 167 163 164 163 164 167 159 146 157 175 163 150 147 143 142 136 138 140 138 141 138 128 129 134 131 127 126 123 125 129 127 124 125 126 125 123 119 121 122 121 118 115 115 115 114 113 111 106 105 101 100 99 94 89 82
213 198 106 182 172 194 250 125 174 176 200 178 188 253 241 206 206 143 185 193 194 202 194 189 187 189 200 202 200 193 191 197 194 188 183 178 178 177 170 166 163 160 164 162 160 160 157 152 148 147 164 167 157 148 145 149 153 144 145 145 138 133 129 126 125 127 129 133 135 136 133 127 125 129 131 132 130 128 127 124 125 124 122 120 120 118 119 115 113 111 110 108 106 101 95 89 83
338 109 182 24 296 212 158 211 31 215 186 182 205 166 227 189 211 189 187 195 198 193 182 189 190 193 200 202 194 188 191 196 188 186 180 178 178 179 174 163 162 156 155 157 155 157 156 147 145 142 149 146 153 156 153 147 154 142 125 127 132 134 132 134 137 137 136 137 138 136 133 133 134 133 133 134 132 133 132 130 130 129 127 127 124 122 121 120 119 115 116 113 109 104 96 90 88
178 192 192 170 216 350 275 114 222 196 183 196 211 223 213 178 210 206 211 199 193 180 187 194 194 197 200 196 186 186 192 191 183 179 176 171 174 175 173 166 161 159 149 151 154 155 150 146 144 135 147 155 154 151 144 140 141 141 139 140 136 133 135 136 136 136 133 136 137 137 137 133 131 133 136 135 135 135 134 132 133 135 134 133 130 127 126 125 122 121 117 114 112 104 98 96 97
192 194 191 190 169 168 183 208 90 147 232 194 186 239 352 210 185 198 205 202 198 193 187 191 194 199 197 186 181 177 185 186 177 173 172 169 172 171 170 167 164 158 152 154 158 149 145 151 148 151 150 160 155 149 146 139 141 142 142 139 137 133 137 140 136 136 136 139 142 139 136 136 134 134 141 138 135 133 136 136 137 138 138 135 134 131 133 131 128 126 122 116 113 106 104 103 102